Location: Gro�wechsungen
(51.4926°N, 10.6901°E)
Time: 07:58:12
(UTC+00:00)

SPOT 3 Rocket - Pass Details

Date: 29 January 2021
Orbit: 780 x 794 km, 98.7° (Epoch: 24 February)

Event Time Altitude Azimuth Distance (km) Brightness Sun altitude
Exits shadow 20:34:31 13° 328° (NNW) 2,116 6.2 -41.7°
Drops below altitude 10° 20:35:11 10° 332° (NNW) 2,350 6.5 -41.7°
Sets 20:37:40 0° 340° (NNW) 3,285 7.3 -42.1°
